Regional Weather Roundup
Issued by NWS

Home | Current Version | Previous Version | Graphics & Text | Print | Product List | Glossary On
Versions: 1 2 3 4 5 6 7 8 9 10 11 12 13 14 15 16 17 18 19 20 21 22 23 24 25 26 27
000
ASUS45 KBOU 181707
RWRCO

WEATHER ROUNDUP FOR COLORADO
NATIONAL WEATHER SERVICE DENVER/BOULDER CO
1100 AM MDT FRI AUG 18 2017

NOTE: "FAIR" INDICATES FEW OR NO CLOUDS BELOW 12000 FEET WITH NO
SIGNIFICANT WEATHER AND/OR OBSTRUCTIONS TO VISIBILITY.

COZ001>005-013-030-031-181800-
...NORTHWEST COLORADO...

CITY           SKY/WX    TMP DP  RH WIND       PRES   REMARKS
CRAIG          FAIR      75  36  24 NW3       30.31F
HAYDEN         FAIR      73  36  25 E5        30.34F
MEEKER         FAIR      72  40  31 VRB3      30.31F
RABBIT EARS PA FAIR      57  32  38 NW3       30.60R
STEAMBOAT SPGS FAIR      70  39  32 CALM      30.35F
WALDEN         FAIR      68  28  22 CALM      30.43S
$$

COZ006>008-011-181800-
...WEST CENTRAL VALLEYS...

CITY           SKY/WX    TMP DP  RH WIND       PRES   REMARKS
GRAND JUNCTION FAIR      80  37  21 SE9       30.21F
MONTROSE       FAIR      77  40  26 N5        30.28F
EAGLE          FAIR      69  37  30 CALM      30.36F
RIFLE          FAIR      73  40  30 CALM      30.26F
DELTA          FAIR      78  39  24 S3        30.26S
NUCLA          NOT AVBL
$$

COZ017>023-064>068-181800-
...SOUTHWEST COLORADO...

CITY           SKY/WX    TMP DP  RH WIND       PRES   REMARKS
DURANGO        FAIR      75  33  21 VRB3      30.34F
CORTEZ         FAIR      80  35  19 S6        30.29F
PAGOSA SPRINGS FAIR      75  25  15 S5        30.42F
TELLURIDE      FAIR      70  29  21 CALM      30.53S
WOLF CREEK PAS PTSUNNY   52  27  37 CALM      30.77S
$$

COZ009-010-012-014-032>034-037-058>063-181800-
...CENTRAL COLORADO...

CITY           SKY/WX    TMP DP  RH WIND       PRES   REMARKS
ASPEN          FAIR      73  39  29 N5        30.40F
BUENA VISTA    FAIR      69  33  26 S3        30.43F
COPPER MTN     PTSUNNY   55  32  41 W9        30.71S
BERTHOUD PASS  FAIR      46  41  81 MISG      30.71S
COTTONWOOD PAS FAIR      68  32  26 SE5       30.56F
GUNNISON       FAIR      64  37  36 CALM      30.46F
KREMMLING      FAIR      68  41  37 CALM      30.41F
LEADVILLE      FAIR      63  31  30 VRB5      30.52S
MONARCH PASS   FAIR      54  30  40 SW16      30.82S
SALIDA         FAIR      70  38  31 CALM      30.47F
SUNLIGHT       FAIR      59  34  38 SW6       30.65S
WILKERSON PASS FAIR      55  32  41 W3        30.69S
$$

COZ069>075-181800-
...SAN LUIS VALLEY/SANGRE DE CRISTO MOUNTAINS...

CITY           SKY/WX    TMP DP  RH WIND       PRES   REMARKS
ALAMOSA        FAIR      69  39  33 CALM      30.42F
DEL NORTE      FAIR      69  36  29 CALM      30.45F
LA VETA PASS   NOT AVBL
SAGUACHE       FAIR      68  37  32 SE7       30.45F
$$

COZ035-036-038>040-181800-
...NORTHERN COLORADO FRONT RANGE...

CITY           SKY/WX    TMP DP  RH WIND       PRES   REMARKS
DENVER INTL AP FAIR      76  45  33 CALM      30.23F
DMNS CITY PARK   N/A     78  43  28 SE3G10    30.23F
AURORA         MOSUNNY   73  42  32 W3        30.25F
FRONT RANGE AP FAIR      75  45  33 CALM      30.25F
ERIE MUNI ARPT FAIR      77  42  27 CALM      30.27S
BOULDER MUN AP FAIR      73  43  33 E5        30.22F
CENTENNIAL     FAIR      74  44  34 CALM      30.26F
BROOMFIELD     MOSUNNY   73  43  33 CALM      30.26F
FORT COLLINS   FAIR      75  48  38 VRB3      30.22F
LONGMONT       FAIR      78  44  30 SE3       30.23S
$$

COZ041-046-047-076>085-087-088-181800-
...PIKES PEAK/PALMER DIVIDE AND SOUTHERN FOOTHILLS...

CITY           SKY/WX    TMP DP  RH WIND       PRES   REMARKS
COLO. SPRINGS  FAIR      83  39  21 CALM      30.29S
A. F. ACADEMY  FAIR      79  38  22 S5        30.29F
SCHRIEVER AFB  FAIR      79  39  23 E5        30.28F
CHEYENNE MTN   PTSUNNY   76  38  25 NE5       30.29S
ELLICOTT       FAIR     N/A N/A N/A VRB6      30.27S
FALCON         FAIR      78  33  19 W9        30.34S
FORT CARSON    FAIR      80  48  33 S3        30.25S
LIMON          FAIR      77  46  33 VRB5      30.23F
MONUMENT HILL  FAIR      72  41  33 NW6       30.35F
CANON CITY     SUNNY     84  46  26 W12       30.22F
WALSENBURG     FAIR      84  34  16 E6        30.28F
TRINIDAD       FAIR      81  43  26 VRB3      30.27S
$$

COZ042>045-048>051-090-091-181800-
...NORTHEAST COLORADO...

CITY           SKY/WX    TMP DP  RH WIND       PRES   REMARKS
GREELEY ARPT   FAIR      77  53  43 CALM      30.21F
AKRON          FAIR      76  47  35 CALM      30.19F
BURLINGTON     FAIR      79  56  45 N10       30.14S
WRAY           NOT AVBL
YUMA           FAIR      75  37  25 N9        30.15S
STERLING       FAIR      79  52  38 CALM      30.15S
HOLYOKE        FAIR      81  52  36 N9        30.12F
FORT MORGAN    FAIR      78  44  30 W5        30.19F
$$

COZ086-089-092>099-181800-
...SOUTHEAST COLORADO...

CITY           SKY/WX    TMP DP  RH WIND       PRES   REMARKS
PUEBLO         FAIR      82  43  25 E6        30.19S
LA JUNTA       FAIR      81  53  37 VRB7      30.16F
LAMAR          FAIR      81  53  37 W8        30.11S
SPRINGFIELD      N/A     79  60  52 VRB7      30.15F
$$




USA.gov is the U.S. government's official web portal to all federal, state and local government web resources and services.